Home > Weather > Bambari > Past weeks

Flag for Central African Republic Weather for the Past 2 Weeks in Bambari, Central African Republic

Now
72 °F

Partly sunny.


Feels Like: 65 °F
Forecast: 75 / 90 °F
Wind: 2 mph from North

Location: Bangui Airport

Current Time: May 5, 2016 at 6:50:35 AM

Latest Report: May 5, 2016 at 6:00 AM


Visibility: 5 mi

Pressure: 29.89 "Hg

Humidity: 100%

Dew Point: 72 °F

Location of BambariLocation

Historic Weather in Bambari — Graph

°F

Bambari Temperature Yesterday

Maximum temperature yesterday: 82 °F (at 4:00 PM)
Minimum temperature yesterday: 75 °F (at 4:00 AM)
Average temperature yesterday: 77 °F

High & Low Weather Summary for the Past Weeks

 TemperatureHumidityPressure
High99 °F (Apr 21, 3:00 PM)100% (Apr 20, 4:00 AM)29.95 "Hg (Apr 20, 4:00 AM)
Low36 °F (Apr 21, 4:00 PM)44% (Apr 25, 3:00 PM)29.68 "Hg (Apr 24, 4:00 PM)
Average82 °F80%29.81 "Hg
* Reported Apr 20 4:00 AM — May 5 4:00 AM, Bambari, Weather by CustomWeather, © 2016

Note: Actual official high and low records may vary slightly from our data, if they occured in-between our weather recording intervals... More about our weather records

Advertising

Bambari Weather History for the Previous 24 Hours

Scroll right to see more
 ConditionsComfort  
Time TempWeatherWind HumidityBarometerVisibility
4:00 AM
Thu, May 5
73 °FPassing clouds.3 mph100%29.86 "Hg4 mi
3:00 AM73 °FPassing clouds.3 mph100%29.86 "Hg5 mi
2:00 AM73 °FPassing clouds.3 mph100%29.86 "Hg5 mi
1:00 AM73 °FPassing clouds.2 mph100%29.86 "Hg5 mi
12:00 AM75 °FClear.3 mph94%29.89 "Hg5 mi
11:00 PM
Wed, May 4
75 °FClear.2 mph94%29.89 "Hg4 mi
10:00 PM75 °FClear.2 mph94%29.89 "Hg5 mi
9:00 PM75 °FClear.2 mph100%29.89 "Hg5 mi
8:00 PM75 °FClear.2 mph94%29.86 "Hg5 mi
7:00 PM77 °FClear.No wind89%29.80 "Hg5 mi
6:00 PM79 °FClear.2 mph84%29.80 "Hg10 mi
5:00 PM82 °FPassing clouds.6 mph74%29.80 "HgN/A
4:00 PM82 °FScattered clouds.6 mph74%29.83 "HgN/A
3:00 PM81 °FScattered clouds.10 mph79%29.89 "HgN/A
2:00 PM81 °FScattered clouds.7 mph79%29.86 "HgN/A
1:00 PM81 °FPassing clouds.2 mph74%29.86 "HgN/A
12:00 PM79 °FPassing clouds.1 mph79%29.89 "HgN/A
11:00 AM75 °FPassing clouds.2 mph83%29.92 "HgN/A
10:00 AM75 °FPassing clouds.5 mph89%29.95 "HgN/A
9:00 AM75 °FScattered clouds.2 mph89%29.92 "HgN/A
8:00 AM75 °FThunderstorms. Scattered clouds.7 mph89%29.89 "HgN/A
7:00 AM77 °FThunderstorms. Scattered clouds.9 mph94%29.89 "HgN/A
6:00 AM75 °FThunderstorms. Partly sunny.2 mph100%29.89 "HgN/A
Weather by CustomWeather, © 2016

See weather overviewHow to use our weather pages